SCP
0 0 0 0 0 0 0 0 0 0 0 0 0 0 0 0 0 0 0 0 0 0 0 0 0 0 0 0 0 0 0 0 0 0 0 0 0 0 0 0 0 0 0
0 0 0 0 0 0 0 0 0 0 0 0 0 0 0 0 0 0 0 0 0 0 0 0 0 0 0 0 0 0 0 0 0 0 0 0 0 0 0 0 0 0 0
0 0 0 0 0 0 0 0 0 0 0 0 0 0 0 0 0 0 0 0 0 0 0 0 0 0 0 0 0 0 0 0 0 0 0 0 0 0 0 0 0 0 0
0 0 0 0 0 0 0 0 0 0 0 0 0 0 0 -0 0 0 0 0 0 0 0 0 0 0 0 0 0 0 0 0 0 0 0 0 0 0 0 0 0 0 0
0 0 0 0 0 0 0 0 0 0 0 0 0 0 0 0 0 0 0 0 0 0 0 0 0 0 0 0 0 0 0 0 0 0 0 0 0 0 0 0 0 0 0
0 0 0 0 0 0 0 0 0 0 0 0 0 0 0 0 0 0 0 0 0 0 0 0 0 0 0 0 0 0 0 0 0 0 0 0 0 0 0 0 0 0 0
0 0 0 0 0 0 0 0 0 0 0 0 0 0 0 0 0 0 0 0 0 0 0 0 0 0 0 0 0 0 0 0 0 0 0 0 0 0 0 0 0 0 0
0 0 0 0 0 0 0 0 0 0 0 0 0 0 0 0 0 0 0 0 0 0 0 0 0 0 0 0 0 0 0 0 0 0 0 0 0 0 0 0 0 0 0
0 0 0 0 0 0 0 0 0 0 0 0 0 0 0 0 0 0 0 0 0 0 0 0 0 0 0 0 0 0 0 0 0 0 0 0 0 0 0 -0 0 0 0
0 0 0 0 0 0 0 0 0 0 0 0 0 0 0 0 0 0 0 0 0 0 0 0 0 0 0 0 0 0 0 0 0 0 0 0 0 0 0 -0 -0 0 0
0 0 0 0 0 0 0 0 0 0 0 0 0 0 0 0 0 0 0 0 0 0 0 0 0 0 0 0 0 0 0 0 0 0 0 0 0 -0 0 0 -0 -0 0
0 0 0 0 0 0 0 0 0 0 0 0 0 0 0 0 0 0 0 0 0 0 0 0 0 0 0 0 0 0 0 0 0 0 0 0 0 -0 -0 0 -0 -0 -0
0 0 0 0 0 0 0 0 0 0 0 0 0 0 0 0 0 0 0 0 0 0 0 0 0 0 0 0 0 0 0 0 0 0 0 0 0 0 -0 0 0 -0 -0
0 0 0 0 0 0 0 0 0 0 0 0 0 0 0 0 0 0 0 0 0 0 0 0 0 0 0 0 0 0 0 0 0 0 0 0 0 0 0 0 0 0 -0
0 0 0 0 0 0 0 0 0 0 0 0 0 0 0 0 0 0 0 0 0 0 0 0 0 0 0 0 0 0 0 0 0 0 0 0 0 0 0 0 0 0 0
0 0 0 0 0 0 0 0 0 0 0 0 0 0 0 0 0 0 0 0 0 0 0 0 0 0 0 0 0 0 0 0 0 0 0 0 0 0 0 0 0 0 0
0 0 0 0 0 0 0 0 0 0 0 0 0 0 0 0 0 0 0 0 0 0 0 0 0 0 0 0 0 0 0 0 0 0 0 0 0 0 0 0 0 0 0
0 0 0 0 0 0 0 0 0 0 0 0 0 0 0 0 0 0 0 0 0 0 0 0 0 0 0 0 0 0 0 0 0 0 0 0 0 0 0 0 0 0 0
0 0 0 0 0 0 0 0 0 0 0 0 0 0 0 0 0 0 0 0 0 0 0 0 0 0 0 0 0 0 0 0 0 0 0 0 0 0 0 0 0 0 0
0 0 0 0 0 0 0 0 0 0 0 0 0 0 0 0 -0 -0 0 0 0 0 0 0 0 0 0 0 0 0 0 0 0 0 0 0 0 0 0 0 0 0 0
0 0 0 0 0 0 0 0 0 0 0 0 0 0 0 0 0 -0 -0 -0 -0 0 0 0 0 0 0 0 0 0 0 0 0 0 0 0 0 0 0 0 0 0 0
0 0 0 0 0 0 0 0 0 0 0 0 0 0 0 0 0 0 0 0 0 0 0 0 0 0 0 0 0 0 0 0 0 0 0 0 0 0 0 0 0 0 0
0 0 0 0 0 0 0 0 0 0 0 0 0 0 0 0 0 0 0 0 0 0 0 0 0 0 0 0 0 0 0 0 0 0 0 0 0 0 0 0 0 0 0
0 0 0 0 0 0 0 0 0 0 0 0 0 0 0 0 0 0 0 0 0 0 0 0 0 0 0 0 0 0 0 0 0 0 0 0 0 0 0 0 0 0 0
0 0 0 0 0 0 0 0 0 0 0 0 0 0 0 0 0 0 0 0 0 0 0 0 0 0 0 0 0 0 0 0 0 0 0 0 0 0 0 0 0 0 0
0 0 0 0 0 0 0 0 0 0 -0 -0 0 0 0 0 0 0 0 0 0 0 0 0 0 0 0 0 0 0 0 0 0 0 0 0 0 0 0 0 0 0 0
Wind_Speed
4 2 2 1 1 1 2 2 1 1 0 1 1 1 2 1 1 1 1 1 1 1 1 1 1 1 1 2 1 1 1 0 1 1 2 2 2 2 2 1 1 1 1
3 2 1 1 1 2 2 2 2 2 2 1 1 1 2 1 1 1 1 2 2 2 2 2 2 2 2 1 2 1 1 1 0 0 0 1 2 2 2 1 2 2 1
4 3 2 2 1 2 2 2 2 2 2 1 0 1 1 1 1 1 1 2 2 2 2 3 3 3 3 3 3 3 3 2 1 1 1 1 2 2 2 2 2 2 2
3 2 2 2 2 3 2 2 2 2 2 1 1 1 1 2 2 2 2 3 2 2 2 3 3 4 3 3 4 3 3 3 3 2 2 2 2 1 2 2 2 2 3
3 3 3 3 3 2 1 1 1 1 1 1 2 2 2 2 2 2 2 3 2 2 2 3 3 4 3 4 4 4 4 4 4 3 2 1 1 2 2 3 3 3 3
3 3 2 2 2 2 1 1 1 1 1 1 1 2 3 2 2 3 3 3 2 2 3 3 3 4 4 4 4 5 5 4 4 4 3 3 2 2 2 3 3 4 3
2 2 3 3 2 2 2 1 1 2 2 2 2 3 3 3 3 3 3 3 3 3 3 3 3 4 4 4 4 4 5 5 5 5 4 4 3 3 2 3 3 4 3
3 3 3 3 3 2 2 2 2 3 2 2 2 2 2 2 2 3 3 4 4 3 4 4 3 4 4 4 3 4 4 4 4 6 5 4 4 3 3 3 3 4 4
3 3 3 3 3 3 3 2 3 3 3 2 2 2 2 2 3 3 3 3 3 3 3 4 3 3 4 4 4 3 4 4 4 5 6 5 4 4 3 3 3 4 5
4 4 4 4 3 3 3 2 2 3 3 2 2 2 2 3 3 2 3 3 4 3 3 4 3 3 3 3 4 4 4 4 5 5 6 5 4 4 4 4 4 4 5
4 4 4 4 4 3 2 2 2 3 2 2 2 2 2 3 2 2 3 3 3 3 3 4 3 3 4 3 3 4 4 4 5 6 6 7 5 5 4 4 4 4 5
3 3 3 3 3 3 3 2 2 3 3 2 2 2 3 3 2 3 3 3 3 3 3 3 3 4 4 3 4 4 4 5 6 6 6 6 5 6 5 5 5 5 5
3 3 3 3 3 3 3 3 3 3 3 2 2 2 3 3 3 4 4 3 3 3 3 3 4 4 4 4 4 5 5 6 6 6 6 7 6 6 5 5 6 5 5
3 3 3 3 3 3 3 3 3 3 3 2 2 2 3 3 4 4 4 3 3 3 3 4 4 4 4 5 5 5 5 5 6 6 6 7 7 7 7 6 6 5 6
4 3 3 3 3 3 3 3 3 3 3 3 3 3 4 3 3 4 4 4 3 4 3 4 4 4 4 4 5 5 6 6 6 6 6 7 8 9 8 6 6 6 6
5 4 4 3 3 3 3 3 3 3 3 2 3 4 4 4 4 4 4 4 4 4 3 4 4 5 5 7 9 7 6 6 6 6 6 6 8 10 12 12 11 10 8
5 5 4 4 4 3 3 3 3 3 3 3 3 4 4 4 4 5 4 4 4 4 4 4 4 5 6 9 10 10 6 5 5 6 6 6 6 9 7 9 12 11 13
4 4 4 4 3 3 3 3 2 2 2 3 4 4 4 4 5 4 5 5 4 4 5 5 5 5 6 8 9 9 6 5 6 6 6 7 7 7 8 7 8 8 8
4 3 3 3 3 3 3 2 2 2 2 3 4 4 4 4 5 5 5 5 5 5 5 5 5 5 6 9 10 9 4 4 6 6 7 7 7 10 11 9 8 8 8
2 2 3 3 3 3 2 2 2 3 3 4 4 4 4 4 5 5 5 5 4 5 5 5 5 5 6 9 10 10 4 5 5 5 6 8 9 10 11 8 8 8 7
3 2 2 2 3 2 1 2 3 4 4 4 4 4 4 4 4 4 4 4 4 4 4 5 5 5 6 8 10 10 4 4 5 5 4 5 9 11 11 10 7 9 8
3 2 2 3 3 2 2 3 4 4 4 4 4 4 4 4 4 4 4 4 4 4 5 5 5 4 5 7 8 10 9 8 5 5 4 5 9 10 11 9 8 10 9
3 2 2 3 4 3 2 3 4 4 3 4 4 4 5 4 4 4 4 4 3 3 4 4 5 5 5 6 10 11 11 10 6 4 7 8 9 9 7 8 9 8 5
3 2 2 3 4 4 3 3 4 3 3 3 4 4 4 4 4 4 3 3 3 3 4 4 5 5 5 5 5 5 6 8 6 5 7 9 8 6 6 6 5 4 4
3 2 3 3 4 4 4 4 3 2 2 3 3 4 4 4 4 4 4 4 4 5 5 4 4 5 5 7 10 7 5 4 4 5 3 3 3 3 3 3 3 3 3
3 3 3 4 4 4 4 4 3 2 2 3 3 3 3 3 3 4 5 7 7 9 9 9 8 6 9 11 12 12 11 10 9 5 3 3 3 4 4 4 4 4 4
Wind_Direction
275 291 279 274 258 247 234 223 234 251 225 258 269 273 274 287 280 261 266 239 241 245 245 251 262 232 211 218 208 235 226 294 328 331 317 301 264 240 229 227 224 243 241
303 304 299 299 260 246 240 232 226 225 224 240 236 242 259 260 264 282 275 265 252 235 226 239 246 237 224 220 218 181 190 259 175 176 319 311 298 287 251 227 223 233 240
264 279 283 265 263 266 254 242 236 230 224 226 345 346 348 335 315 308 295 286 267 250 244 230 239 235 216 217 222 207 192 207 231 213 189 193 249 303 289 253 239 236 238
266 276 280 278 267 262 270 257 235 231 226 186 191 193 229 254 261 271 283 290 271 255 250 244 235 233 222 221 224 218 213 196 215 228 248 231 187 220 290 283 266 258 248
253 262 267 263 271 271 265 257 238 231 217 189 196 204 242 258 284 297 290 288 281 269 261 251 243 237 225 222 226 218 218 211 211 210 222 241 245 220 225 269 279 283 262
265 269 288 306 312 330 329 324 287 269 235 210 215 218 237 262 293 297 285 288 288 280 279 271 253 248 235 226 225 223 215 220 216 213 213 206 206 210 217 249 274 275 270
295 299 313 316 315 320 319 310 291 282 267 235 234 237 238 233 240 260 265 280 283 279 274 273 260 255 247 241 231 226 221 217 215 216 223 223 226 220 222 233 263 277 284
325 313 304 298 295 298 301 301 290 288 285 262 264 267 263 242 251 259 261 261 264 268 275 273 269 268 260 255 242 228 229 222 220 227 225 226 230 225 222 225 239 275 279
320 310 311 306 296 294 288 276 281 290 289 281 285 284 277 264 257 261 259 262 271 277 277 276 276 275 269 260 249 236 232 226 230 233 227 225 227 221 227 232 225 233 262
319 317 313 306 298 290 287 288 281 278 279 280 277 282 281 274 261 255 265 268 274 273 270 271 268 269 268 263 252 249 242 230 236 239 230 229 227 221 221 226 233 232 242
307 311 314 314 313 316 315 312 304 304 303 301 302 311 305 295 288 272 271 267 275 268 259 261 259 260 262 257 250 250 251 244 243 243 238 235 230 222 220 221 227 234 235
304 308 312 323 327 324 325 320 315 314 312 315 325 323 317 312 308 299 289 283 278 271 263 261 260 262 263 257 250 253 253 245 249 245 242 242 236 227 223 222 227 233 234
309 317 321 321 317 317 321 322 318 311 319 324 325 321 314 312 308 303 303 299 281 279 275 269 263 263 263 259 253 247 249 243 245 246 240 243 233 234 229 228 231 234 240
286 302 310 310 308 308 312 316 319 320 321 319 312 308 304 301 298 301 307 301 287 282 282 276 271 266 264 261 258 253 252 251 251 252 246 240 233 235 232 234 235 234 239
299 297 297 300 305 313 317 321 322 326 324 318 309 302 304 305 307 307 308 306 304 294 286 282 281 278 268 260 258 255 254 254 257 254 248 242 239 242 240 240 235 233 237
284 288 289 291 294 296 302 309 312 314 316 309 305 311 317 318 316 313 315 315 313 305 292 287 283 281 277 279 277 272 261 257 256 258 259 255 250 249 252 253 251 243 238
272 271 275 277 280 282 284 284 292 305 312 312 316 320 322 323 320 318 321 316 314 314 300 291 285 280 280 282 281 280 276 265 260 261 264 266 262 256 246 254 258 256 252
280 279 282 286 290 289 291 292 297 301 306 314 318 321 322 317 317 320 319 316 315 312 304 299 292 290 292 293 292 289 280 267 262 258 257 260 264 258 250 245 248 251 253
274 278 280 287 295 293 293 298 301 305 307 308 309 311 311 310 314 315 313 311 310 310 306 300 298 294 298 300 296 293 278 270 268 263 259 259 258 264 263 255 251 253 255
301 297 305 309 298 295 294 289 292 299 294 295 297 300 302 301 302 303 305 305 302 301 305 306 304 298 296 302 301 296 275 273 273 269 265 266 266 268 266 255 248 252 252
311 310 307 298 290 294 289 281 287 284 291 299 302 304 304 299 295 300 302 303 306 308 307 306 306 302 301 306 308 305 286 272 274 274 271 268 277 275 271 266 251 254 258
322 318 312 308 308 298 272 276 281 291 303 304 305 306 307 305 309 308 308 307 307 308 307 310 311 307 306 311 310 309 303 297 280 276 273 274 282 279 276 270 266 270 269
311 314 303 309 313 305 276 274 290 303 306 308 307 307 311 309 309 305 306 309 306 303 306 308 308 310 311 309 312 312 310 303 291 280 286 290 290 289 283 281 278 275 262
307 308 305 304 306 309 304 285 293 300 303 305 307 310 313 314 312 304 297 297 297 299 300 298 299 303 307 308 308 306 307 303 293 290 287 289 290 286 286 288 283 266 257
305 299 291 293 298 307 307 304 302 302 304 303 305 311 311 308 309 305 294 294 279 286 293 293 291 300 303 309 316 314 308 305 298 304 296 293 290 282 277 275 272 267 262
300 300 297 297 300 304 303 304 302 294 295 303 307 305 305 303 304 307 310 307 303 308 308 308 308 299 303 311 315 318 317 318 318 313 296 290 285 281 278 274 272 268 263